{"data":{"norad_id":58101,"intl_designator":"2023-161E","name":"STARLINK-30605","alt_names":[],"object_type":"PAYLOAD","status":"ACTIVE","operator":null,"country":"US","launch_date":"2023-10-21","launch_site_code":"AFWTR","launch_vehicle":null,"mission":null,"orbit_class":"UNKNOWN","rcs_meters":null,"size_class":null,"mass_kg":null,"dimensions":null,"purposes":["comms"],"wikipedia_slug":null,"has_3d_model":false,"image_url":null,"decayed_at":null,"tle_current":{"epoch":"2026-05-24T10:59:02.407200Z","epoch_age_seconds":119218,"freshness":"FRESH","line1":"1 58101U 23161E   26144.45766675 -.00000301  00000+0  19634-5 0  9993","line2":"2 58101  53.1593 173.4845 0001128  92.7598 267.3532 15.30191731146029","mean_motion":15.30191731,"eccentricity":0.0001128,"inclination_deg":53.1593,"raan_deg":173.4845,"arg_perigee_deg":92.7598,"mean_anomaly_deg":267.3532,"bstar":1.9634e-6,"rev_number":14602,"period_min":94.105854242131,"perigee_km":474.46669837557,"apogee_km":476.01282017246,"semimajor_km":6853.376759274,"source":"CELESTRAK","updated_at":"2026-05-25T13:38:18.526739Z"}}}